GW4246 Weather Reports


Display with metric or nautical units.
time (UTC)temp
F
wind
direction
speed
MPH
gust
MPH
rain 1hr
in
rain 24hr
in
rain mn
in
humidity
%
barometer
mb
20260506175018 65 188 2.0 6.0 0.00 0.00 0.00 73 1019.9
20260506174021 65 198 3.0 6.0 0.00 0.00 0.00 73 1019.8
20260506173015 63 27 2.0 4.0 0.00 0.00 0.00 75 1020.0
20260506172018 63 15 2.0 4.0 0.00 0.00 0.00 76 1020.0
20260506171022 63 16 2.0 4.0 0.00 0.00 0.00 76 1020.1
20260506170016 63 59 1.0 3.0 0.00 0.00 0.00 74 1020.1
20260506165039 62 19 1.0 3.0 0.00 0.00 0.00 75 1020.1
20260506164042 62 167 2.0 5.0 0.00 0.00 0.00 75 1020.1
20260506163017 62 145 1.0 4.0 0.00 0.00 0.00 74 1020.1
20260506162020 60 224 1.0 5.0 0.00 0.00 0.00 79 1020.0
20260506161023 60 14 2.0 4.0 0.00 0.00 0.00 79 1020.0
20260506160017 59 45 1.0 2.0 0.00 0.00 0.00 81 1020.1
20260506155020 58 154 1.0 3.0 0.00 0.00 0.00 81 1020.0
20260506154023 58 196 1.0 3.0 0.00 0.00 0.00 82 1020.0
20260506153017 57 60 0.0 2.0 0.00 0.00 0.00 83 1019.9
20260506152020 57 29 1.0 2.0 0.00 0.00 0.00 85 1019.9
20260506151016 56 35 1.0 3.0 0.00 0.00 0.00 85 1020.0
20260506150018 56 61 0.0 2.0 0.00 0.00 0.00 85 1020.0
20260506145021 56 71 1.0 3.0 0.00 0.00 0.00 86 1019.9
20260506144015 55 41 2.0 4.0 0.00 0.00 0.00 89 1019.8
20260506143018 54 124 1.0 3.0 0.00 0.00 0.00 90 1019.8
20260506142021 54 129 1.0 4.0 0.00 0.00 0.00 91 1019.6
20260506141035 54 83 1.0 3.0 0.00 0.00 0.00 91 1019.5
20260506140018 54 10 2.0 3.0 0.00 0.00 0.00 91 1019.5
20260506135021 53 332 1.0 3.0 0.00 0.00 0.00 91 1019.4
20260506134016 53 151 1.0 3.0 0.00 0.00 0.00 91 1019.4
20260506133018 53 270 1.0 3.0 0.00 0.00 0.00 91 1019.4
20260506132021 53 199 2.0 3.0 0.00 0.00 0.00 91 1019.4
20260506131016 53 220 1.0 3.0 0.00 0.00 0.00 91 1019.3
20260506130019 53 194 2.0 5.0 0.00 0.00 0.00 91 1019.2
20260506125022 53 256 1.0 2.0 0.00 0.00 0.00 91 1019.2
20260506124016 53 154 2.0 3.0 0.00 0.00 0.00 91 1019.1
20260506123019 53 76 1.0 3.0 0.00 0.00 0.00 91 1019.1
20260506122022 53 54 1.0 4.0 0.00 0.00 0.00 91 1019.0
20260506121017 53 39 1.0 3.0 0.00 0.00 0.00 91 1018.9
20260506120019 53 147 0.0 1.0 0.00 0.00 0.00 91 1018.8
20260506115022 53 0.0 0.0 0.00 0.00 0.00 91 1018.9
20260506114018 53 0.0 0.0 0.00 0.00 0.00 91 1018.8
20260506113100 53 0.0 0.0 0.00 0.00 0.00 91 1018.7
20260506112023 53 44 0.0 1.0 0.00 0.00 0.00 91 1018.7
20260506111037 53 191 1.0 3.0 0.00 0.00 0.00 91 1018.7
20260506110021 53 190 2.0 3.0 0.00 0.00 0.00 91 1018.7
20260506105015 53 186 0.0 2.0 0.00 0.00 0.00 91 1018.6
20260506104018 53 162 1.0 3.0 0.00 0.00 0.00 91 1018.5
20260506103021 53 146 1.0 2.0 0.00 0.00 0.00 91 1018.4
20260506102035 53 148 0.0 2.0 0.00 0.00 0.00 91 1018.4
20260506101017 53 148 1.0 2.0 0.00 0.00 0.00 91 1018.3
20260506100019 53 173 2.0 3.0 0.00 0.00 0.00 91 1018.3
20260506095022 53 155 1.0 2.0 0.00 0.00 0.00 91 1018.3
20260506094037 53 159 1.0 2.0 0.00 0.00 0.00 91 1018.3
20260506093040 53 153 1.0 2.0 0.00 0.00 0.00 91 1018.3
20260506092015 53 153 1.0 2.0 0.00 0.00 0.00 91 1018.4
20260506091038 53 171 2.0 3.0 0.00 0.00 0.00 91 1018.3
20260506090041 53 166 2.0 4.0 0.00 0.00 0.00 91 1018.5
20260506085016 54 150 1.0 2.0 0.00 0.00 0.00 91 1018.5
20260506084019 54 162 1.0 2.0 0.00 0.00 0.00 91 1018.5
20260506083022 54 171 0.0 1.0 0.00 0.00 0.00 90 1018.4
20260506082017 54 0.0 1.0 0.00 0.00 0.00 90 1018.4
20260506081021 54 184 0.0 2.0 0.00 0.00 0.00 90 1018.4
20260506073017 54 154 1.0 2.0 0.00 0.01 0.00 91 1018.0
20260506072020 53 66 0.0 2.0 0.00 0.01 0.00 91 1018.0
20260506071015 53 111 0.0 2.0 0.00 0.01 0.00 91 1017.9
20260506062023 54 196 1.0 3.0 0.00 0.12 0.03 91 1017.7
20260506061018 54 184 1.0 3.0 0.00 0.14 0.03 90 1017.6
20260506051021 54 156 2.0 4.0 0.00 0.17 0.03 90 1017.3
20260506045019 54 193 2.0 5.0 0.00 0.18 0.03 89 1017.0
20260506044022 54 211 2.0 4.0 0.00 0.18 0.03 89 1017.0
20260506043017 54 188 2.0 4.0 0.00 0.19 0.03 89 1016.9
20260506042020 54 153 1.0 2.0 0.00 0.19 0.03 89 1016.7
20260506041022 54 184 2.0 5.0 0.00 0.19 0.03 89 1016.5
20260506040017 54 190 2.0 4.0 0.00 0.20 0.03 89 1016.4
20260506035041 54 199 1.0 3.0 0.00 0.22 0.03 90 1016.5
20260506034015 54 189 2.0 3.0 0.00 0.22 0.03 90 1016.4
20260506033019 54 198 1.0 3.0 0.00 0.22 0.03 89 1016.1
20260506032022 54 196 2.0 5.0 0.00 0.24 0.03 89 1015.8
20260506031017 54 199 3.0 5.0 0.00 0.24 0.03 89 1015.6
20260506030040 55 206 4.0 6.0 0.00 0.25 0.03 88 1015.7
20260506025023 55 201 4.0 6.0 0.00 0.26 0.03 88 1015.7
20260506024018 55 212 3.0 8.0 0.00 0.28 0.03 87 1015.5
20260506023021 56 203 4.0 8.0 0.00 0.29 0.03 87 1015.4
20260506022016 56 193 3.0 6.0 0.00 0.30 0.03 86 1015.5
20260506021019 56 203 6.0 10.0 0.00 0.31 0.03 86 1015.3
20260506020042 56 207 5.0 9.0 0.00 0.32 0.03 86 1015.2
20260506015017 56 203 6.0 13.0 0.00 0.32 0.03 85 1015.0
20260506014021 57 202 4.0 11.0 0.00 0.33 0.03 83 1015.1
20260506013015 57 86 1.0 4.0 0.00 0.36 0.03 81 1015.0
20260506012018 58 202 3.0 10.0 0.00 0.37 0.03 80 1015.0
20260506011042 58 191 4.0 11.0 0.00 0.39 0.03 79 1015.0
20260506010017 59 171 1.0 3.0 0.00 0.40 0.03 78 1015.0
20260506005020 60 116 1.0 4.0 0.00 0.41 0.03 78 1015.0
20260506004015 59 34 1.0 3.0 0.00 0.42 0.03 79 1014.9
20260506003018 59 200 3.0 7.0 0.00 0.43 0.03 79 1014.7
20260506002022 60 197 6.0 15.0 0.00 0.44 0.03 77 1014.7
20260506001017 60 200 5.0 11.0 0.00 0.46 0.03 76 1014.6
20260506000020 62 189 3.0 14.0 0.00 0.47 0.03 74 1014.5
20260505235043 61 48 1.0 4.0 0.00 0.48 0.03 74 1014.6
20260505234018 61 184 2.0 6.0 0.00 0.49 0.03 76 1014.6
20260505233021 61 199 4.0 10.0 0.00 0.50 0.03 76 1014.7
20260505232036 61 199 4.0 11.0 0.00 0.50 0.03 74 1014.6
20260505231019 61 199 6.0 13.0 0.00 0.52 0.03 75 1014.5
20260505230022 62 194 4.0 10.0 0.00 0.54 0.03 75 1014.6
20260505225016 62 200 5.0 11.0 0.00 0.54 0.03 75 1014.6
20260505224040 62 191 4.0 10.0 0.00 0.56 0.03 74 1014.6
20260505223023 62 198 6.0 13.0 0.00 0.56 0.03 74 1014.7
20260505222037 64 179 4.0 9.0 0.00 0.56 0.03 72 1014.7
20260505221020 64 185 3.0 11.0 0.00 0.56 0.03 73 1014.7
20260505220036 63 189 2.0 6.0 0.00 0.56 0.03 74 1014.7
20260505215019 63 204 3.0 8.0 0.00 0.56 0.03 74 1014.8
20260505214041 63 181 2.0 6.0 0.00 0.56 0.03 74 1014.9
20260505213016 62 201 2.0 7.0 0.00 0.56 0.03 76 1015.0
20260505212019 63 197 2.0 9.0 0.00 0.56 0.03 75 1015.0
20260505211043 63 205 1.0 2.0 0.00 0.56 0.03 74 1015.1
20260505210018 63 157 1.0 3.0 0.00 0.56 0.03 74 1015.1
20260505205020 63 99 0.0 2.0 0.00 0.56 0.03 74 1015.1
20260505204016 62 191 3.0 11.0 0.00 0.56 0.03 76 1015.1
20260505203019 62 64 1.0 3.0 0.00 0.56 0.03 75 1015.1
20260505202022 61 198 3.0 11.0 0.00 0.56 0.03 77 1015.1
20260505201017 62 119 1.0 4.0 0.00 0.56 0.03 75 1015.2
20260505200020 61 150 1.0 4.0 0.00 0.56 0.03 76 1015.2
20260505195043 61 189 2.0 8.0 0.00 0.56 0.03 77 1015.1
20260505194018 62 106 2.0 4.0 0.00 0.56 0.03 74 1015.2
20260505193021 62 57 1.0 4.0 0.00 0.56 0.03 75 1015.3
20260505192016 62 124 1.0 4.0 0.00 0.56 0.03 76 1015.2
20260505191039 62 79 1.0 3.0 0.00 0.56 0.03 77 1015.3
20260505190042 61 80 1.0 3.0 0.00 0.56 0.03 77 1015.2
20260505185017 60 65 0.0 2.0 0.00 0.56 0.03 77 1015.1
20260505184020 61 172 2.0 6.0 0.00 0.56 0.03 76 1015.2
20260505183035 61 148 2.0 6.0 0.00 0.56 0.03 78 1015.2
20260505182018 60 62 1.0 4.0 0.00 0.56 0.03 77 1015.1
20260505181021 59 120 1.0 4.0 0.00 0.56 0.03 79 1015.1
20260505180016 59 34 1.0 4.0 0.00 0.56 0.03 79 1015.0